Voltar ao catálogo

THORAD AGENA D DEB

AtivoSSO
NORAD 4859·DEBRIS·🇺🇸 United States

Lançado Apr 8, 1970 de Vandenberg Space Force Base

Loading…

Próximas Passagens

TLE

Source: Space-Track
1 04859U 70025EP  26218.50033773  .00000377  00000-0  55157-3 0  9990
2 04859  99.9487 318.3106 0050550 172.7961 248.1099 13.61277863774560

Acompanhe THORAD AGENA D DEB em tempo real com AllMySat

Download on the App Store